sat.trackr.live / text

‹ back to catalog

KUIPER-00077

NORAD 64824 · 2025-151J

PAYLOAD ACTIVE UNKNOWN

§ Identity

Operator
Country
US
Launch date
2025-07-16
Launch site
AFETR
Launch vehicle
Mass (kg)
RCS (m²)

External: N2YO · Heavens-Above · Gunter

§ Orbital elements

Epoch: 2026-09-21T20:51:57.937248Z

Period
97.30 min
Inclination
51.9013°
Eccentricity
0.0001114
Mean motion
14.79929292 rev/d
Perigee alt
628.8 km
Apogee alt
630.3 km
Semi-major
7,007.7 km
B*
2.7533e-4
RAAN
150.6174°
Arg perigee
94.4132°
Mean anomaly
265.6958°
Rev number
6,439

§ Raw data

KUIPER-000771 64824U 25151J   26264.86942057  .00001878  00000+0  27533-3 0  99952 64824  51.9013 150.6174 0001114  94.4132 265.6958 14.79929292 64396

JSON: /api/v1/satellites/64824 · /tle

For live sub-satellite position, see the globe view (requires WebGL).

§ Visibility from observer

Set your observer location to see the next 7 days of passes ≥ 10°. The values pass through the URL so the page stays shareable.

No JS? Fill the form by hand. The geolocation button needs JavaScript.